Torna al catalogo

FENGYUN 1C DEB

AttivoSSO
NORAD 31497·DEBRIS·🇨🇳 China

Lanciato May 10, 1999 da Taiyuan Satellite Launch Center

Loading…

Prossimi Passaggi (prossime 24 ore)

TLE

AggiornatoSource: Space-Track

Epoca: Sep 13, 2026, 04:22 UTC

1 31497U 99025BWL 26256.18201480  .00000243  00000-0  80016-4 0  9992
2 31497  98.3982 238.9386 0166043 238.3308 180.8747 14.39581190 14394

Traccia FENGYUN 1C DEB in tempo reale con AllMySat

Download on the App Store